Home   Weather   Bielsko-Biała   Past weeks

Flag for Poland Past Weather in Bielsko-Biała, Poland — Yesterday and Last 2 Weeks

44 °F

Light rain. Low clouds.

Feels Like: 44 °F
Forecast: 36 / 48 °F
Wind: 2 mph from Southwest

Location: Katowice

Current Time: Oct 21, 2016 at 3:12:21 PM

Latest Report: Oct 21, 2016 at 2:00 PM

Visibility: 2 mi

Pressure: 29.98 "Hg

Humidity: 93%

Dew Point: 42 °F

Location of Bielsko-BiałaLocation

Past Weather in Bielsko-Biała — Graph


Bielsko-Biała Temperature Yesterday

Maximum temperature yesterday: 47 °F (at 1:00 AM)
Minimum temperature yesterday: 43 °F (at 10:00 PM)
Average temperature yesterday: 45 °F

High & Low Weather Summary for the Past Weeks

High60 °F (Oct 15, 3:00 PM)97% (Oct 7, 7:00 AM)30.41 "Hg (Oct 7, 7:00 AM)
Low30 °F (Oct 7, 4:00 AM)57% (Oct 7, 4:00 PM)29.96 "Hg (Oct 6, 1:00 PM)
Average44 °F86%30.14 "Hg
* Reported Oct 6 1:00 PM — Oct 21 1:00 PM, Bielsko-Biała, Weather by CustomWeather, © 2016

Note: Actual official high and low records may vary slightly from our data, if they occured in-between our weather recording intervals... More about our weather records


Bielsko-Biała Weather History for the Previous 24 Hours

Scroll right to see more
Time TempWeatherWind HumidityBarometerVisibility
1:00 PM
Fri, Oct 21
44 °FLight rain. Overcast.1 mph92%29.98 "Hg2 mi
12:00 PM43 °FLight rain. Low clouds.No wind93%29.99 "Hg2 mi
11:00 AM43 °FLight rain. Low clouds.2 mph94%30.00 "Hg2 mi
10:00 AM42 °FFog.1 mph95%29.99 "Hg2 mi
9:00 AM42 °FFog.1 mph96%30.01 "Hg1 mi
8:00 AM40 °FFog.1 mph95%30.00 "Hg1 mi
7:00 AM41 °FFog.1 mph96%29.99 "Hg2 mi
6:00 AM41 °FFog.1 mph96%29.99 "Hg2 mi
5:00 AM42 °FFog.2 mph96%30.00 "Hg1 mi
4:00 AM42 °FFog.2 mph96%29.99 "Hg0 mi
3:00 AM42 °FFog.2 mph96%30.00 "Hg1 mi
2:00 AM43 °FFog.1 mph95%30.00 "Hg1 mi
1:00 AM43 °FFog.1 mph95%30.00 "Hg1 mi
12:00 AM43 °FFog.1 mph95%30.01 "Hg1 mi
11:00 PM
Thu, Oct 20
43 °FOvercast.1 mph95%30.01 "Hg2 mi
10:00 PM43 °FLight rain. Overcast.1 mph94%30.02 "Hg2 mi
9:00 PM43 °FLight rain. Overcast.1 mph94%30.02 "Hg2 mi
8:00 PM44 °FLight rain. Overcast.No wind94%30.02 "Hg3 mi
7:00 PM44 °FLight rain. Low clouds.1 mph92%30.03 "Hg3 mi
6:00 PM44 °FLight rain. Low clouds.1 mph91%30.04 "Hg4 mi
5:00 PM45 °FLight rain. Low clouds.No wind91%30.04 "Hg3 mi
4:00 PM45 °FLight rain. Low clouds.1 mph91%30.05 "Hg4 mi
3:00 PM45 °FLight rain. Low clouds.1 mph92%30.05 "Hg3 mi
Weather by CustomWeather, © 2016

See weather overviewHow to use our weather pages